TimeEDT,TemperatureF,Dew PointF,Humidity,Sea Level PressureIn,VisibilityMPH,Wind Direction,Wind SpeedMPH,Gust SpeedMPH,PrecipitationIn,Events,Conditions,WindDirDegrees,DateUTC
12:32 AM,33.8,28.4,81,30.10,10.0,West,8.1,-,N/A,,Overcast,280,2013-03-27 04:32:00
12:52 AM,32.0,28.9,88,30.14,10.0,West,10.4,-,N/A,,Overcast,260,2013-03-27 04:52:00
1:40 AM,32.0,28.4,87,30.10,10.0,West,6.9,-,N/A,,Overcast,270,2013-03-27 05:40:00
1:52 AM,32.0,28.9,88,30.14,8.0,West,8.1,-,0.00,Snow,Light Snow,260,2013-03-27 05:52:00
2:52 AM,32.0,28.9,88,30.14,9.0,West,9.2,-,0.00,,Overcast,270,2013-03-27 06:52:00
3:52 AM,30.9,28.9,92,30.13,3.0,West,8.1,-,0.00,Snow,Light Snow,270,2013-03-27 07:52:00
3:59 AM,30.2,28.4,93,30.09,4.0,West,9.2,-,0.00,Snow,Light Snow,270,2013-03-27 07:59:00
4:11 AM,30.2,30.2,100,30.09,2.0,West,8.1,-,0.00,Snow,Light Snow,280,2013-03-27 08:11:00
4:25 AM,30.2,30.2,100,30.10,5.0,West,9.2,-,0.00,Snow,Light Snow,270,2013-03-27 08:25:00
4:52 AM,30.9,30.0,96,30.13,5.0,West,9.2,-,0.00,Snow,Light Snow,280,2013-03-27 08:52:00
5:52 AM,30.9,28.9,92,30.14,9.0,West,8.1,-,0.00,,Overcast,270,2013-03-27 09:52:00
6:38 AM,30.2,28.4,93,30.12,10.0,West,8.1,-,N/A,,Overcast,280,2013-03-27 10:38:00
6:46 AM,30.2,28.4,93,30.12,10.0,West,6.9,-,N/A,,Overcast,270,2013-03-27 10:46:00
6:47 AM,30.9,28.9,92,30.16,10.0,West,5.8,-,N/A,,Overcast,270,2013-03-27 10:47:00
7:52 AM,30.9,28.9,92,30.18,10.0,West,9.2,-,N/A,,Overcast,270,2013-03-27 11:52:00
8:24 AM,30.2,28.4,93,30.15,10.0,West,9.2,-,N/A,,Overcast,270,2013-03-27 12:24:00
8:52 AM,32.0,28.9,88,30.20,10.0,West,8.1,-,N/A,,Mostly Cloudy,280,2013-03-27 12:52:00
9:06 AM,33.8,28.4,81,30.16,10.0,West,10.4,-,N/A,,Scattered Clouds,260,2013-03-27 13:06:00
9:15 AM,33.8,28.4,81,30.16,10.0,West,9.2,-,N/A,,Mostly Cloudy,270,2013-03-27 13:15:00
9:30 AM,33.8,28.4,81,30.16,10.0,West,9.2,-,N/A,,Scattered Clouds,280,2013-03-27 13:30:00
9:52 AM,34.0,27.0,75,30.20,10.0,West,10.4,19.6,N/A,,Scattered Clouds,280,2013-03-27 13:52:00
10:40 AM,35.6,28.4,75,30.17,10.0,West,11.5,18.4,N/A,,Mostly Cloudy,270,2013-03-27 14:40:00
10:52 AM,37.0,27.0,67,30.20,10.0,West,12.7,20.7,N/A,,Mostly Cloudy,270,2013-03-27 14:52:00
10:59 AM,35.6,26.6,70,30.16,10.0,WNW,13.8,21.9,N/A,,Mostly Cloudy,290,2013-03-27 14:59:00
11:06 AM,35.6,26.6,70,30.17,10.0,West,16.1,23.0,N/A,,Mostly Cloudy,270,2013-03-27 15:06:00
11:52 AM,37.0,26.1,65,30.21,10.0,West,10.4,-,N/A,,Mostly Cloudy,270,2013-03-27 15:52:00
12:52 PM,39.0,27.0,62,30.21,10.0,West,13.8,23.0,N/A,,Mostly Cloudy,270,2013-03-27 16:52:00
1:52 PM,41.0,27.0,57,30.20,10.0,West,15.0,23.0,N/A,,Mostly Cloudy,280,2013-03-27 17:52:00
2:52 PM,39.0,25.0,57,30.20,10.0,West,10.4,18.4,N/A,,Overcast,270,2013-03-27 18:52:00
3:52 PM,39.9,24.1,53,30.19,10.0,WNW,8.1,19.6,N/A,,Overcast,290,2013-03-27 19:52:00
4:52 PM,39.0,25.0,57,30.19,10.0,West,13.8,23.0,N/A,,Overcast,270,2013-03-27 20:52:00
5:52 PM,39.0,27.0,62,30.20,10.0,West,12.7,21.9,N/A,,Overcast,260,2013-03-27 21:52:00
6:52 PM,37.9,28.9,70,30.21,10.0,West,15.0,20.7,N/A,,Overcast,260,2013-03-27 22:52:00
7:52 PM,36.0,28.0,73,30.21,10.0,West,13.8,19.6,N/A,,Mostly Cloudy,260,2013-03-27 23:52:00
8:52 PM,36.0,28.0,73,30.21,10.0,WSW,11.5,-,N/A,,Overcast,240,2013-03-28 00:52:00
9:52 PM,35.1,28.0,76,30.22,10.0,WSW,9.2,17.3,N/A,,Overcast,250,2013-03-28 01:52:00
10:52 PM,35.1,27.0,72,30.22,10.0,West,11.5,-,N/A,,Overcast,260,2013-03-28 02:52:00
11:52 PM,34.0,26.1,73,30.23,10.0,West,10.4,-,N/A,,Overcast,260,2013-03-28 03:52:00